Indianapolis, IN

2:50 PM EST on November 21, 2017 (GMT -0500)
Indianapolis Terry

Weather History for KTYQ - April, 2013

Change the Weather History Date:

Friday, April 5, 2013

  Actual Average (KEYE) Record (KEYE)
Temperature  
Mean Temperature 44 °F -  
Max Temperature 56 °F 57 °F 77 °F (2005)
Min Temperature 32 °F 39 °F 26 °F (2016)
Degree Days  
Heating Degree Days 21    
Moisture  
Dew Point 26 °F    
Average Humidity 49    
Maximum Humidity 76    
Minimum Humidity 26    
Precipitation  
Precipitation 0.00 in - - ()
Sea Level Pressure  
Sea Level Pressure 30.08 in    
Wind  
Wind Speed 5 mph (North)    
Max Wind Speed 14 mph    
Max Gust Speed 20 mph    
Visibility 10 miles    
Events      
Averages and records for this station are not official NWS values.
T = Trace of Precipitation, MM = Missing Value Source: NWS Daily Summary

Daily Weather History Graph

Daily Weather History Graph

Search for Another Location

Airport or City:

Trip Planner

Search our weather history database for the weather conditions in past years. The results will help you decide how hot, cold, wet, or windy it might be!

Date:

Astronomy

Apr. 05, 2013 Rise Set
Actual Time 7:22 AM EDT 8:13 PM EDT
Civil Twilight 6:54 AM EDT 8:41 PM EDT
Nautical Twilight 6:22 AM EDT 9:13 PM EDT
Astronomical Twilight 5:48 AM EDT 9:47 PM EDT
Moon 4:29 AM EDT (4/5) 3:37 PM EDT (4/5)
Length of Visible Light 13h 46m
Length of Day
12h 51m
Waning Crescent, 24% of the Moon is Illuminated
Apr 5
Waning Crescent
Apr 10
New
Apr 18
First Quarter
Apr 25
Full
May 2
Last Quarter

Hourly Weather History & Observations

Time (EDT) Temp. Windchill Dew Point Humidity Pressure Visibility Wind Dir Wind Speed Gust Speed Precip Events Conditions
12:15 AM 36.3 °F - 25.3 °F 64% 30.00 in 10.0 mi Calm Calm - N/A   Clear
12:35 AM 35.2 °F - 26.6 °F 71% 30.00 in 10.0 mi Calm Calm - N/A   Clear
12:55 AM 34.9 °F - 27.0 °F 73% 30.00 in 10.0 mi Calm Calm - N/A   Clear
1:15 AM 35.6 °F - 24.1 °F 63% 30.00 in 10.0 mi Calm Calm - N/A   Clear
1:35 AM 35.2 °F - 25.0 °F 66% 29.99 in 10.0 mi Calm Calm - N/A   Clear
1:55 AM 35.6 °F - 24.6 °F 64% 29.99 in 10.0 mi Calm Calm - N/A   Clear
2:15 AM 34.7 °F - 24.8 °F 67% 30.00 in 10.0 mi Calm Calm - N/A   Clear
2:35 AM 33.8 °F - 26.1 °F 73% 29.99 in 10.0 mi Calm Calm - N/A   Clear
2:55 AM 32.5 °F - 25.5 °F 75% 29.99 in 10.0 mi Calm Calm - N/A   Clear
3:15 AM 33.1 °F 30.0 °F 26.2 °F 76% 29.99 in 10.0 mi WSW 3.5 mph - N/A   Clear
3:35 AM 33.4 °F 29.1 °F 25.5 °F 73% 29.99 in 10.0 mi West 4.6 mph - N/A   Clear
3:55 AM 35.8 °F 31.9 °F 23.5 °F 61% 29.99 in 10.0 mi West 4.6 mph - N/A   Clear
4:15 AM 35.4 °F 31.5 °F 22.3 °F 59% 29.99 in 10.0 mi West 4.6 mph - N/A   Clear
4:35 AM 36.0 °F 32.1 °F 23.0 °F 59% 29.99 in 10.0 mi West 4.6 mph - N/A   Clear
4:55 AM 36.9 °F 33.1 °F 23.2 °F 58% 30.00 in 10.0 mi West 4.6 mph - N/A   Clear
5:15 AM 38.3 °F 35.9 °F 21.4 °F 51% 30.00 in 10.0 mi West 3.5 mph - N/A   Clear
5:35 AM 38.5 °F 36.1 °F 21.0 °F 50% 30.01 in 10.0 mi WNW 3.5 mph - N/A   Clear
5:55 AM 37.6 °F 33.1 °F 21.9 °F 53% 30.01 in 10.0 mi WNW 5.8 mph - N/A   Clear
6:15 AM 37.6 °F 33.1 °F 22.6 °F 55% 30.02 in 10.0 mi WNW 5.8 mph - N/A   Clear
6:35 AM 37.6 °F 32.3 °F 23.4 °F 57% 30.03 in 10.0 mi NW 6.9 mph - N/A   Clear
6:55 AM 37.4 °F 32.8 °F 23.5 °F 57% 30.03 in 10.0 mi NW 5.8 mph - N/A   Clear
7:15 AM 37.8 °F 33.3 °F 24.4 °F 59% 30.04 in 10.0 mi NW 5.8 mph - N/A   Clear
7:35 AM 37.2 °F 32.6 °F 25.0 °F 61% 30.05 in 10.0 mi NNW 5.8 mph - N/A   Clear
7:55 AM 37.0 °F 31.0 °F 26.1 °F 65% 30.06 in 10.0 mi NNW 8.1 mph - N/A   Clear
8:15 AM 38.1 °F 32.3 °F 27.3 °F 65% 30.07 in 10.0 mi NNW 8.1 mph - N/A   Clear
8:35 AM 39.6 °F 34.0 °F 29.1 °F 66% 30.07 in 10.0 mi North 8.1 mph - N/A   Clear
8:55 AM 41.2 °F 35.5 °F 30.6 °F 66% 30.08 in 10.0 mi North 9.2 mph - N/A   Clear
9:15 AM 43.0 °F 37.2 °F 31.1 °F 63% 30.08 in 7.0 mi North 10.4 mph - N/A   Clear
9:35 AM 44.6 °F 38.4 °F 31.8 °F 61% 30.09 in 7.0 mi North 12.7 mph - N/A   Clear
9:55 AM 45.1 °F 38.8 °F 31.8 °F 60% 30.09 in 7.0 mi NNE 13.8 mph - N/A   Clear
10:15 AM 46.4 °F 41.1 °F 32.0 °F 57% 30.10 in 7.0 mi North 11.5 mph - N/A   Clear
10:35 AM 47.7 °F - 31.6 °F 54% 30.10 in 10.0 mi NNE 10.4 mph - N/A   Clear
10:55 AM 48.9 °F - 31.6 °F 51% 30.10 in 7.0 mi North 9.2 mph - N/A   Clear
11:15 AM 50.5 °F - 31.1 °F 47% 30.11 in 10.0 mi NNE 11.5 mph - N/A   Clear
11:35 AM 51.3 °F - 29.8 °F 44% 30.12 in 10.0 mi NNE 12.7 mph - N/A   Clear
11:55 AM 51.8 °F - 30.4 °F 44% 30.12 in 10.0 mi NNE 10.4 mph - N/A   Clear
12:15 PM 52.9 °F - 29.8 °F 41% 30.12 in 10.0 mi NNE 10.4 mph - N/A   Clear
12:35 PM 53.6 °F - 31.1 °F 42% 30.12 in 10.0 mi NE 12.7 mph 19.6 mph N/A   Clear
12:55 PM 53.6 °F - 30.0 °F 41% 30.12 in 10.0 mi North 13.8 mph 18.4 mph N/A   Clear
1:15 PM 54.3 °F - 29.5 °F 39% 30.12 in 10.0 mi North 10.4 mph - N/A   Clear
1:35 PM 54.5 °F - 29.7 °F 39% 30.12 in 10.0 mi NNW 10.4 mph 18.4 mph N/A   Clear
1:55 PM 54.7 °F - 28.9 °F 37% 30.12 in 10.0 mi NNE 11.5 mph 18.4 mph N/A   Clear
2:15 PM 54.9 °F - 29.1 °F 37% 30.11 in 10.0 mi NNE 6.9 mph 18.4 mph N/A   Clear
2:35 PM 55.2 °F - 28.8 °F 36% 30.11 in 10.0 mi NNE 10.4 mph 16.1 mph N/A   Scattered Clouds
2:55 PM 55.4 °F - 28.6 °F 36% 30.11 in 10.0 mi NNE 10.4 mph 16.1 mph N/A   Clear
3:15 PM 55.6 °F - 28.0 °F 35% 30.10 in 10.0 mi North 12.7 mph 19.6 mph N/A   Clear
3:35 PM 55.4 °F - 27.7 °F 35% 30.09 in 10.0 mi NNW 6.9 mph 13.8 mph N/A   Clear
3:55 PM 55.6 °F - 25.9 °F 32% 30.09 in 10.0 mi NE 6.9 mph - N/A   Clear
4:15 PM 55.9 °F - 26.4 °F 32% 30.09 in 10.0 mi North 8.1 mph - N/A   Clear
4:35 PM 55.9 °F - 25.5 °F 31% 30.09 in 7.0 mi North 9.2 mph - N/A   Clear
4:55 PM 56.1 °F - 25.3 °F 31% 30.08 in 7.0 mi North 9.2 mph 17.3 mph N/A   Clear
5:15 PM 55.8 °F - 23.9 °F 29% 30.08 in 10.0 mi ENE 5.8 mph - N/A   Clear
5:35 PM 56.1 °F - 23.2 °F 28% 30.08 in 7.0 mi North 9.2 mph - N/A   Clear
5:55 PM 56.1 °F - 22.1 °F 27% 30.08 in 10.0 mi NNE 8.1 mph - N/A   Clear
6:15 PM 55.4 °F - 21.4 °F 27% 30.09 in 7.0 mi North 10.4 mph 16.1 mph N/A   Clear
6:35 PM 55.0 °F - 20.3 °F 26% 30.10 in 10.0 mi North 6.9 mph - N/A   Clear
6:55 PM 54.3 °F - 21.6 °F 28% 30.10 in 7.0 mi North 8.1 mph - N/A   Clear
7:15 PM 53.6 °F - 21.6 °F 29% 30.11 in 7.0 mi NNW 8.1 mph - N/A   Clear
7:35 PM 52.5 °F - 22.1 °F 31% 30.11 in 10.0 mi NNW 8.1 mph - N/A   Clear
7:55 PM 50.7 °F - 21.4 °F 32% 30.11 in 7.0 mi NNW 5.8 mph - N/A   Clear
8:15 PM 48.2 °F - 21.9 °F 36% 30.12 in 10.0 mi North 4.6 mph - N/A   Clear
8:35 PM 47.8 °F - 19.9 °F 33% 30.13 in 10.0 mi North 4.6 mph - N/A   Clear
8:55 PM 47.3 °F - 19.9 °F 34% 30.13 in 10.0 mi North 4.6 mph - N/A   Clear
9:15 PM 45.3 °F 44.0 °F 21.9 °F 40% 30.13 in 10.0 mi NNE 3.5 mph - N/A   Clear
9:35 PM 42.6 °F - 24.8 °F 49% 30.14 in 10.0 mi Calm Calm - N/A   Clear
9:55 PM 41.9 °F - 24.8 °F 51% 30.14 in 10.0 mi Calm Calm - N/A   Clear
10:15 PM 41.9 °F 36.9 °F 25.0 °F 51% 30.16 in 10.0 mi North 8.1 mph - N/A   Clear
10:35 PM 42.3 °F 36.3 °F 25.5 °F 52% 30.16 in 10.0 mi North 10.4 mph - N/A   Clear
10:55 PM 41.4 °F 35.2 °F 25.3 °F 53% 30.15 in 7.0 mi North 10.4 mph - N/A   Clear
11:15 PM 39.7 °F 34.9 °F 25.7 °F 57% 30.15 in 10.0 mi NNE 6.9 mph - N/A   Clear
11:35 PM 39.4 °F 33.8 °F 25.7 °F 58% 30.14 in 10.0 mi NNE 8.1 mph - N/A   Clear
11:55 PM 39.4 °F 33.8 °F 25.9 °F 58% 30.15 in 10.0 mi NNE 8.1 mph - N/A   Clear